DW8157 Weather Reports


Display with metric or nautical units.
time (UTC)temp
F
wind
direction
speed
MPH
gust
MPH
rain 1hr
in
rain 24hr
in
rain mn
in
humidity
%
barometer
mb
20200710002252 82 141 1.0 0.0 0.00 0.00 0.00 65 1014.0
20200710001747 83 110 1.0 0.0 0.00 0.00 0.00 64 1014.0
20200710001242 83 78 1.0 0.0 0.00 0.00 0.00 64 1014.0
20200710000757 83 0.0 0.0 0.00 0.00 0.00 63 1014.0
20200710000252 84 102 1.0 0.0 0.00 0.00 0.00 62 1014.0
20200709235752 84 136 1.0 0.0 0.00 0.00 0.00 62 1014.0
20200709235246 84 136 1.0 0.0 0.00 0.00 0.00 61 1013.7
20200709234740 84 136 1.0 0.0 0.00 0.00 0.00 61 1013.7
20200709234242 85 158 1.0 0.0 0.00 0.00 0.00 59 1013.7
20200709233757 85 165 1.0 0.0 0.00 0.00 0.00 59 1013.7
20200709233253 85 229 1.0 0.0 0.00 0.00 0.00 59 1013.7
20200709232747 85 85 1.0 0.0 0.00 0.00 0.00 59 1013.7
20200709232242 85 127 1.0 0.0 0.00 0.00 0.00 58 1013.6
20200709231757 86 165 1.0 0.0 0.00 0.00 0.00 58 1013.6
20200709231251 86 121 1.0 0.0 0.00 0.00 0.00 54 1013.6
20200709230746 86 83 1.0 0.0 0.00 0.00 0.00 54 1013.8
20200709230242 86 192 1.0 0.0 0.00 0.00 0.00 54 1013.8
20200709225756 86 147 2.0 0.0 0.00 0.00 0.00 52 1013.8
20200709225251 87 164 1.0 0.0 0.00 0.00 0.00 53 1013.9
20200709224749 87 164 1.0 0.0 0.00 0.00 0.00 53 1013.9
20200709224244 87 158 1.0 0.0 0.00 0.00 0.00 51 1013.9
20200709223739 87 112 1.0 0.0 0.00 0.00 0.00 52 1013.8
20200709223255 87 75 1.0 0.0 0.00 0.00 0.00 51 1013.8
20200709222749 87 75 1.0 0.0 0.00 0.00 0.00 50 1013.8
20200709222243 87 51 1.0 0.0 0.00 0.00 0.00 51 1013.6
20200709221742 87 169 1.0 0.0 0.00 0.00 0.00 49 1013.6
20200709221257 87 160 2.0 0.0 0.00 0.00 0.00 49 1013.6
20200709220752 87 150 1.0 0.0 0.00 0.00 0.00 49 1013.7
20200709220248 88 141 1.0 0.0 0.00 0.00 0.00 49 1013.8
20200709215741 88 128 1.0 0.0 0.00 0.00 0.00 48 1013.7
20200709215256 88 233 1.0 0.0 0.00 0.00 0.00 51 1013.7
20200709214751 88 95 1.0 0.0 0.00 0.00 0.00 50 1013.7
20200709214246 88 162 2.0 0.0 0.00 0.00 0.00 50 1013.7
20200709213740 89 68 1.0 0.0 0.00 0.00 0.00 51 1013.9
20200709213256 89 65 1.0 0.0 0.00 0.00 0.00 49 1013.9
20200709212751 89 155 1.0 0.0 0.00 0.00 0.00 49 1013.9
20200709212245 90 148 1.0 0.0 0.00 0.00 0.00 49 1013.8
20200709211740 90 99 1.0 0.0 0.00 0.00 0.00 50 1013.8
20200709211255 90 114 1.0 0.0 0.00 0.00 0.00 49 1013.8
20200709210750 91 168 2.0 0.0 0.00 0.00 0.00 46 1013.8
20200709210246 91 175 2.0 0.0 0.00 0.00 0.00 45 1013.8
20200709205740 91 161 1.0 0.0 0.00 0.00 0.00 48 1013.8
20200709205238 92 133 1.0 0.0 0.00 0.00 0.00 46 1014.1
20200709204753 91 143 2.0 0.0 0.00 0.00 0.00 46 1014.1
20200709204248 92 209 2.0 0.0 0.00 0.00 0.00 47 1014.1
20200709203743 92 103 2.0 0.0 0.00 0.00 0.00 45 1014.2
20200709203259 91 179 1.0 0.0 0.00 0.00 0.00 45 1014.2
20200709202753 91 169 1.0 0.0 0.00 0.00 0.00 45 1014.2
20200709202248 91 102 1.0 0.0 0.00 0.00 0.00 45 1014.2
20200709201743 91 144 1.0 0.0 0.00 0.00 0.00 47 1014.2
20200709201257 92 296 1.0 0.0 0.00 0.00 0.00 49 1014.2
20200709200752 92 79 1.0 0.0 0.00 0.00 0.00 46 1014.3
20200709200248 91 102 1.0 0.0 0.00 0.00 0.00 49 1014.3
20200709195742 91 117 2.0 0.0 0.00 0.00 0.00 47 1014.3
20200709195257 91 99 2.0 0.0 0.00 0.00 0.00 46 1014.5
20200709194752 91 150 1.0 0.0 0.00 0.00 0.00 51 1014.5
20200709194247 91 133 2.0 0.0 0.00 0.00 0.00 49 1014.5
20200709193742 91 95 2.0 0.0 0.00 0.00 0.00 49 1014.9
20200709193258 91 78 1.0 0.0 0.00 0.00 0.00 51 1014.9
20200709192752 91 92 1.0 0.0 0.00 0.00 0.00 49 1014.9
20200709192250 90 277 1.0 0.0 0.00 0.00 0.00 47 1014.9
20200709191745 90 117 1.0 0.0 0.00 0.00 0.00 48 1014.9
20200709191240 90 200 1.0 0.0 0.00 0.00 0.00 52 1014.9
20200709190753 89 114 2.0 0.0 0.00 0.00 0.00 48 1015.0
20200709190249 89 202 2.0 0.0 0.00 0.00 0.00 48 1015.0
20200709185743 89 100 1.0 0.0 0.00 0.00 0.00 53 1015.0
20200709185238 88 120 1.0 0.0 0.00 0.00 0.00 57 1015.0
20200709184736 88 86 1.0 0.0 0.00 0.00 0.00 55 1015.0
20200709184254 89 88 2.0 0.0 0.00 0.00 0.00 57 1015.0
20200709183749 88 86 2.0 0.0 0.00 0.00 0.00 54 1015.0
20200709183245 88 126 1.0 0.0 0.00 0.00 0.00 56 1015.0
20200709182739 88 102 1.0 0.0 0.00 0.00 0.00 56 1015.0
20200709182254 87 116 2.0 0.0 0.00 0.00 0.00 59 1015.0
20200709181749 87 75 2.0 0.0 0.00 0.00 0.00 58 1015.0
20200709181244 87 134 1.0 0.0 0.00 0.00 0.00 63 1015.0
20200709180739 87 178 2.0 0.0 0.00 0.00 0.00 65 1015.1
20200709180254 87 199 2.0 0.0 0.00 0.00 0.00 62 1015.1
20200709175752 87 99 2.0 0.0 0.00 0.00 0.00 61 1015.1
20200709175250 87 143 2.0 0.0 0.00 0.00 0.00 64 1015.0
20200709174744 86 202 1.0 0.0 0.00 0.00 0.00 64 1015.0
20200709174239 86 104 1.0 0.0 0.00 0.00 0.00 66 1015.0
20200709173754 85 209 1.0 0.0 0.00 0.00 0.00 68 1015.2
20200709173250 85 99 1.0 0.0 0.00 0.00 0.00 68 1015.2
20200709172744 85 151 2.0 0.0 0.00 0.00 0.00 66 1015.2
20200709172239 85 80 3.0 0.0 0.00 0.00 0.00 67 1015.3
20200709171753 85 172 2.0 0.0 0.00 0.00 0.00 70 1015.3
20200709171248 85 121 1.0 0.0 0.00 0.00 0.00 69 1015.3
20200709170743 84 167 1.0 0.0 0.00 0.00 0.00 73 1015.6
20200709170259 84 237 1.0 0.0 0.00 0.00 0.00 70 1015.6
20200709165752 84 164 1.0 0.0 0.00 0.00 0.00 71 1015.6
20200709165246 83 134 1.0 0.0 0.00 0.00 0.00 73 1015.6
20200709164740 83 158 1.0 0.0 0.00 0.00 0.00 73 1015.6
20200709164255 83 106 1.0 0.0 0.00 0.00 0.00 73 1015.6
20200709163750 83 127 1.0 0.0 0.00 0.00 0.00 75 1015.7
20200709163250 82 117 1.0 0.0 0.00 0.00 0.00 73 1015.7
20200709162745 82 69 1.0 0.0 0.00 0.00 0.00 74 1015.7
20200709162239 82 110 1.0 0.0 0.00 0.00 0.00 72 1016.0
20200709161754 82 178 1.0 0.0 0.00 0.00 0.00 74 1016.0
20200709161249 82 126 1.0 0.0 0.00 0.00 0.00 70 1016.0
20200709160743 82 226 1.0 0.0 0.00 0.00 0.00 73 1016.0
20200709160239 81 99 1.0 0.0 0.00 0.00 0.00 79 1015.9
20200709155752 81 86 1.0 0.0 0.00 0.00 0.00 76 1015.9
20200709155246 81 158 1.0 0.0 0.00 0.00 0.00 79 1015.9
20200709154741 81 254 0.0 0.0 0.00 0.00 0.00 79 1015.9
20200709154256 80 102 1.0 0.0 0.00 0.00 0.00 77 1015.9
20200709153751 80 199 0.0 0.0 0.00 0.00 0.00 79 1015.9
20200709153247 80 93 1.0 0.0 0.00 0.00 0.00 79 1015.9
20200709152741 80 114 1.0 0.0 0.00 0.00 0.00 80 1015.9
20200709152255 80 212 1.0 0.0 0.00 0.00 0.00 81 1015.8
20200709151751 80 78 1.0 0.0 0.00 0.00 0.00 83 1015.8
20200709151245 79 95 1.0 0.0 0.00 0.00 0.00 82 1015.7
20200709150744 79 160 1.0 0.0 0.00 0.00 0.00 83 1015.9
20200709150240 79 97 1.0 0.0 0.00 0.00 0.00 84 1015.9
20200709145754 79 144 1.0 0.0 0.00 0.00 0.00 85 1015.9
20200709145249 78 223 0.0 0.0 0.00 0.00 0.00 85 1016.0
20200709144744 78 119 0.0 0.0 0.00 0.00 0.00 84 1016.0
20200709144238 78 213 0.0 0.0 0.00 0.00 0.00 87 1016.0
20200709143753 78 213 0.0 0.0 0.00 0.00 0.00 87 1016.0
20200709143249 78 158 0.0 0.0 0.00 0.00 0.00 89 1016.0
20200709142743 78 116 0.0 0.0 0.00 0.00 0.00 90 1016.0
20200709142258 78 112 0.0 0.0 0.00 0.00 0.00 90 1016.0
20200709141753 77 117 1.0 0.0 0.00 0.00 0.00 89 1016.0
20200709141248 77 109 1.0 0.0 0.00 0.00 0.00 90 1016.0
20200709140742 77 83 1.0 0.0 0.00 0.00 0.00 91 1016.1
20200709140258 77 103 1.0 0.0 0.00 0.00 0.00 90 1016.1
20200709135751 77 103 0.0 0.0 0.00 0.00 0.00 92 1016.1
20200709135245 76 299 0.0 0.0 0.00 0.00 0.00 93 1015.9
20200709134739 76 294 0.0 0.0 0.00 0.00 0.00 94 1015.9
20200709134253 76 51 0.0 0.0 0.00 0.00 0.00 95 1015.9
20200709133752 76 117 0.0 0.0 0.00 0.00 0.00 97 1016.0
20200709133252 75 119 1.0 0.0 0.00 0.00 0.00 98 1016.0
20200709132749 75 4 1.0 0.0 0.00 0.00 0.00 99 1016.0
20200709132243 75 85 1.0 0.0 0.00 0.00 0.00 100 1016.1
20200709131738 74 97 0.0 0.0 0.00 0.00 0.00 100 1016.1
20200709131253 74 299 0.0 0.0 0.00 0.00 0.00 100 1016.1
20200709130748 74 299 0.0 0.0 0.00 0.00 0.00 100 1016.1
20200709130244 74 299 0.0 0.0 0.00 0.00 0.00 100 1016.1
20200709125758 74 299 0.0 0.0 0.00 0.00 0.00 100 1016.1
20200709125253 74 76 0.0 0.0 0.00 0.00 0.00 100 1016.1
20200709124748 74 76 0.0 0.0 0.00 0.00 0.00 100 1016.1
20200709124243 74 73 0.0 0.0 0.00 0.00 0.00 100 1016.1
20200709123757 74 73 0.0 0.0 0.00 0.00 0.00 100 1015.9
20200709123252 74 72 0.0 0.0 0.00 0.00 0.00 100 1015.9
20200709122746 74 72 0.0 0.0 0.00 0.00 0.00 100 1015.9
20200709122242 74 72 1.0 0.0 0.00 0.00 0.00 100 1015.8
20200709121743 74 72 1.0 0.0 0.00 0.00 0.00 100 1015.8
20200709121258 74 72 0.0 0.0 0.00 0.00 0.00 100 1015.8
20200709120752 73 71 0.0 0.0 0.00 0.00 0.00 100 1015.7
20200709120248 73 112 0.0 0.0 0.00 0.00 0.00 100 1015.7
20200709115742 73 112 0.0 0.0 0.00 0.00 0.00 100 1015.7
20200709115257 73 112 0.0 0.0 0.00 0.00 0.00 100 1015.9
20200709114752 73 112 0.0 0.0 0.00 0.00 0.00 100 1015.9
20200709114246 73 112 0.0 0.0 0.00 0.00 0.00 100 1015.9
20200709113738 72 198 0.0 0.0 0.00 0.00 0.00 100 1015.9
20200709113237 72 198 0.0 0.0 0.00 0.00 0.00 100 1015.9
20200709112754 72 198 0.0 0.0 0.00 0.00 0.00 100 1015.9
20200709112250 72 198 0.0 0.0 0.00 0.00 0.00 100 1015.8
20200709111744 72 198 0.0 0.0 0.00 0.00 0.00 100 1015.8
20200709111239 72 198 0.0 0.0 0.00 0.00 0.00 100 1015.8
20200709110754 72 198 0.0 0.0 0.00 0.00 0.00 100 1015.6
20200709110250 72 198 0.0 0.0 0.00 0.00 0.00 100 1015.6
20200709105743 72 198 0.0 0.0 0.00 0.00 0.00 100 1015.6
20200709105243 72 198 0.0 0.0 0.00 0.00 0.00 100 1015.5
20200709104756 72 198 0.0 0.0 0.00 0.00 0.00 100 1015.5
20200709104251 72 198 0.0 0.0 0.00 0.00 0.00 100 1015.5
20200709103746 71 198 0.0 0.0 0.00 0.00 0.00 100 1015.5
20200709103242 71 198 0.0 0.0 0.00 0.00 0.00 100 1015.5
20200709102756 71 198 0.0 0.0 0.00 0.00 0.00 100 1015.5
20200709102251 71 198 0.0 0.0 0.00 0.00 0.00 100 1015.5
20200709101745 71 198 0.0 0.0 0.00 0.00 0.00 100 1015.5
20200709101240 71 198 0.0 0.0 0.00 0.00 0.00 100 1015.5
20200709100752 71 198 0.0 0.0 0.00 0.00 0.00 100 1015.3
20200709100252 71 198 0.0 0.0 0.00 0.00 0.00 100 1015.3
20200709095749 71 133 0.0 0.0 0.00 0.00 0.00 100 1015.3
20200709095244 71 134 0.0 0.0 0.00 0.00 0.00 100 1015.2
20200709094739 71 134 0.0 0.0 0.00 0.00 0.00 100 1015.2
20200709094254 71 134 0.0 0.0 0.00 0.00 0.00 100 1015.2
20200709093746 71 134 0.0 0.0 0.00 0.00 0.00 100 1015.1
20200709093242 71 134 0.0 0.0 0.00 0.00 0.00 100 1015.1
20200709092739 71 134 0.0 0.0 0.00 0.00 0.00 100 1015.1
20200709092254 71 134 0.0 0.0 0.00 0.00 0.00 100 1015.0
20200709091749 71 134 0.0 0.0 0.00 0.00 0.00 100 1015.0
20200709091244 71 134 0.0 0.0 0.00 0.00 0.00 100 1015.0
20200709090739 71 134 0.0 0.0 0.00 0.00 0.00 100 1015.0
20200709090253 71 134 0.0 0.0 0.00 0.00 0.00 100 1015.0
20200709085744 71 134 0.0 0.0 0.00 0.00 0.00 100 1015.0
20200709085238 71 134 0.0 0.0 0.00 0.00 0.00 100 1014.9
20200709084753 71 134 0.0 0.0 0.00 0.00 0.00 100 1014.9
20200709084248 71 134 0.0 0.0 0.00 0.00 0.00 100 1014.9
20200709083743 70 134 0.0 0.0 0.00 0.00 0.00 100 1014.7
20200709083258 70 134 0.0 0.0 0.00 0.00 0.00 100 1014.7
20200709082752 70 134 0.0 0.0 0.00 0.00 0.00 99 1014.7
20200709082247 70 134 0.0 0.0 0.00 0.00 0.00 99 1014.5
20200709081742 70 134 0.0 0.0 0.00 0.00 0.00 99 1014.5
20200709081257 70 134 0.0 0.0 0.00 0.00 0.00 99 1014.5
20200709080751 70 134 0.0 0.0 0.00 0.00 0.00 99 1014.3
20200709080248 70 134 0.0 0.0 0.00 0.00 0.00 99 1014.3
20200709075744 70 134 0.0 0.0 0.00 0.00 0.00 99 1014.3
20200709075239 71 134 0.0 0.0 0.00 0.00 0.00 99 1014.2
20200709074754 71 134 0.0 0.0 0.00 0.00 0.00 99 1014.2
20200709074249 71 134 0.0 0.0 0.00 0.00 0.00 99 1014.2
20200709073743 71 134 0.0 0.0 0.00 0.00 0.00 99 1014.2
20200709073259 71 134 0.0 0.0 0.00 0.00 0.00 99 1014.2
20200709072752 71 134 0.0 0.0 0.00 0.00 0.00 99 1014.2
20200709072251 71 134 0.0 0.0 0.00 0.00 0.00 99 1014.3
20200709071745 71 134 0.0 0.0 0.00 0.00 0.00 99 1014.3
20200709071240 71 134 0.0 0.0 0.00 0.00 0.00 99 1014.3
20200709070754 71 134 0.0 0.0 0.00 0.00 0.00 99 1014.2
20200709070250 71 134 0.0 0.0 0.00 0.00 0.00 99 1014.2
20200709065743 71 134 0.0 0.0 0.00 0.00 0.00 99 1014.3
20200709065257 71 134 0.0 0.0 0.00 0.00 0.00 99 1014.3
20200709064752 71 134 0.0 0.0 0.00 0.00 0.00 99 1014.3
20200709064246 71 134 0.0 0.0 0.00 0.00 0.00 99 1014.3
20200709063740 71 134 0.0 0.0 0.00 0.00 0.00 99 1014.4
20200709063240 71 134 0.0 0.0 0.00 0.00 0.00 99 1014.4
20200709062754 71 134 0.0 0.0 0.00 0.00 0.00 99 1014.4
20200709062249 71 134 0.0 0.0 0.00 0.00 0.00 99 1014.4
20200709061744 71 134 0.0 0.0 0.00 0.00 0.00 99 1014.4
20200709061239 72 134 0.0 0.0 0.00 0.00 0.00 99 1014.4
20200709060753 72 134 0.0 0.0 0.00 0.00 0.00 99 1014.4
20200709060252 72 134 0.0 0.0 0.00 0.00 0.00 99 1014.4
20200709055745 72 134 0.0 0.0 0.00 0.00 0.00 99 1014.4
20200709055240 72 134 0.0 0.0 0.00 0.00 0.00 99 1014.5
20200709054755 72 134 0.0 0.0 0.00 0.00 0.00 99 1014.5
20200709054250 72 134 0.0 0.0 0.00 0.00 0.00 99 1014.5
20200709053745 72 134 0.0 0.0 0.00 0.00 0.00 99 1014.6
20200709053241 72 134 0.0 0.0 0.00 0.00 0.00 99 1014.6
20200709052755 72 134 0.0 0.0 0.00 0.00 0.00 99 1014.6
20200709052249 72 134 0.0 0.0 0.00 0.00 0.00 99 1014.7
20200709051744 72 134 0.0 0.0 0.00 0.00 0.00 99 1014.7
20200709051239 72 134 0.0 0.0 0.00 0.00 0.00 99 1014.7
20200709050754 72 134 0.0 0.0 0.00 0.00 0.00 99 1014.6
20200709050254 72 134 0.0 0.0 0.00 0.00 0.00 99 1014.6
20200709045748 72 134 0.0 0.0 0.00 0.00 0.00 99 1014.6
20200709045243 72 134 0.0 0.0 0.00 0.00 0.00 99 1014.6
20200709044758 72 134 0.0 0.0 0.00 0.00 0.00 99 1014.6
20200709044251 72 134 0.0 0.0 0.00 0.00 0.00 99 1014.6
20200709043746 72 134 0.0 0.0 0.00 0.00 0.00 99 1014.6
20200709043241 72 134 0.0 0.0 0.00 0.00 0.00 99 1014.6
20200709042755 72 134 0.0 0.0 0.00 0.00 0.00 99 1014.6
20200709042250 72 134 0.0 0.0 0.00 0.00 0.00 99 1014.4
20200709041745 72 134 0.0 0.0 0.00 0.00 0.00 99 1014.4
20200709041239 72 134 0.0 0.0 0.00 0.00 0.00 99 1014.4
20200709040737 72 134 1.0 0.0 0.00 0.00 0.00 99 1014.7
20200709040237 72 131 1.0 0.0 0.00 0.00 0.00 99 1014.7
20200709035754 72 85 1.0 0.0 0.00 0.00 0.21 99 1014.7
20200709035248 72 291 0.0 0.0 0.00 0.00 0.21 99 1014.5
20200709034743 72 239 0.0 0.0 0.00 0.00 0.21 99 1014.5
20200709034241 72 239 0.0 0.0 0.00 0.00 0.21 99 1014.5
20200709033756 72 102 0.0 0.0 0.00 0.00 0.21 99 1014.7
20200709033252 72 100 0.0 0.0 0.00 0.00 0.21 99 1014.7
20200709032746 72 100 1.0 0.0 0.00 0.00 0.21 99 1014.7
20200709032240 73 360 1.0 0.0 0.00 0.00 0.21 99 1014.4
20200709031755 73 294 2.0 0.0 0.00 0.00 0.21 99 1014.4
20200709031250 73 251 2.0 0.0 0.00 0.00 0.21 99 1014.4
20200709030745 73 241 2.0 0.0 0.00 0.00 0.21 99 1014.3
20200709030240 73 291 1.0 0.0 0.00 0.00 0.21 99 1014.3
20200709025754 73 270 1.0 0.0 0.00 0.00 0.21 99 1014.3
20200709025249 73 258 1.0 0.0 0.00 0.00 0.21 99 1014.2
20200709024743 73 271 1.0 0.0 0.00 0.00 0.21 99 1014.2
20200709024258 73 230 1.0 0.0 0.00 0.00 0.21 99 1014.2
20200709023753 73 261 1.0 0.0 0.00 0.00 0.21 99 1014.9
20200709023249 73 298 0.0 0.0 0.00 0.00 0.21 99 1014.9
20200709022743 73 318 0.0 0.0 0.00 0.00 0.21 99 1014.9
20200709022258 73 8 0.0 0.0 0.00 0.00 0.21 99 1015.0
20200709021753 73 360 1.0 0.0 0.00 0.00 0.21 99 1015.0
20200709021251 73 54 0.0 0.0 0.00 0.00 0.21 99 1015.0
20200709020746 73 62 0.0 0.0 0.00 0.00 0.21 98 1015.0
20200709020245 73 64 0.0 0.0 0.00 0.00 0.21 98 1015.0
20200709015739 73 59 0.0 0.0 0.00 0.00 0.21 98 1014.9
20200709015254 73 59 0.0 0.0 0.00 0.00 0.21 98 1014.4
20200709014749 73 61 0.0 0.0 0.00 0.00 0.21 98 1014.4
20200709014243 73 61 0.0 0.0 0.00 0.00 0.21 98 1014.4
20200709013758 73 61 0.0 0.0 0.00 0.00 0.21 98 1013.9
20200709013254 73 61 0.0 0.0 0.00 0.00 0.21 98 1013.9
20200709012748 73 61 0.0 0.0 0.00 0.00 0.21 98 1013.9
20200709012243 73 61 0.0 0.0 0.00 0.00 0.21 98 1013.5
20200709011758 73 61 0.0 0.0 0.00 0.00 0.21 98 1013.5
20200709011253 73 61 0.0 0.0 0.00 0.00 0.21 98 1013.5
20200709010748 73 61 0.0 0.0 0.00 0.00 0.21 98 1013.9
20200709010244 73 61 0.0 0.0 0.00 0.00 0.21 98 1013.9
20200709005757 73 61 0.0 0.0 0.00 0.00 0.21 98 1013.9
20200709005251 74 61 0.0 0.0 0.00 0.00 0.21 98 1013.9
20200709004750 74 61 0.0 0.0 0.00 0.00 0.21 98 1013.9
20200709004245 74 61 0.0 0.0 0.00 0.00 0.21 98 1013.9
20200709003740 74 61 0.0 0.0 0.00 0.00 0.21 98 1014.2
20200709003256 74 45 0.0 0.0 0.00 0.00 0.21 98 1014.2
20200709002750 74 45 0.0 0.0 0.00 0.00 0.21 98 1014.2